Location: La Pernelle
(49.6188°N, 1.2999°W)
Time: 03:52:36
(UTC+00:00)

NOSS 3-2 (A) - Pass Details

Date: 16 October 2021
Orbit: 771 x 1437 km, 63.4° (Epoch: 21 November)

Event Time Altitude Azimuth Distance (km) Brightness Sun altitude
Rises 20:24:51 0° 306° (NW) 3,703 7.6 -31.4°
Reaches altitude 10° 20:27:39 10° 317° (NW) 2,854 6.7 -31.8°
Maximum altitude 20:33:38 31° 19° (NNE) 1,913 5.0 -32.6°
Enters shadow 20:34:22 30° 29° (NNE) 1,951 5.0 -32.7°
